GW1765 Weather Reports


Display with metric or nautical units.
time (UTC)temp
F
wind
direction
speed
MPH
gust
MPH
rain 1hr
in
rain 24hr
in
rain mn
in
humidity
%
barometer
mb
20260508121058 58 316 2.0 9.0 0.01 0.64 0.00 99 1004.4
20260508120055 58 310 1.0 8.0 0.01 0.64 0.00 99 1004.4
20260508115052 59 293 0.0 8.0 0.01 0.64 0.64 99 1004.4
20260508114048 59 331 1.0 8.0 0.00 0.64 0.63 99 1004.1
20260508113044 59 348 1.0 8.0 0.00 0.64 0.63 99 1004.2
20260508112041 59 330 2.0 8.0 0.00 0.65 0.63 99 1004.3
20260508111039 59 310 2.0 8.0 0.00 0.65 0.63 99 1004.3
20260508110034 59 352 1.0 8.0 0.00 0.65 0.63 99 1004.4
20260508105030 60 321 1.0 8.0 0.00 0.66 0.63 99 1004.3
20260508104030 60 315 0.0 8.0 0.00 0.66 0.63 99 1004.5
20260508103024 60 5 1.0 8.0 0.00 0.67 0.63 99 1004.6
20260508102020 60 339 2.0 10.0 0.01 0.67 0.63 99 1004.7
20260508101016 60 329 0.0 9.0 0.05 0.67 0.63 99 1004.8
20260508100114 60 343 1.0 10.0 0.13 0.67 0.63 99 1004.8
20260508095111 59 308 5.0 12.0 0.20 0.67 0.63 99 1004.8
20260508094106 57 344 4.0 13.0 0.28 0.67 0.63 99 1004.9
20260508093125 60 0.0 4.0 0.37 0.67 0.63 99 1004.8
20260508092100 61 0 0.0 10.0 0.37 0.66 0.61 99 1003.9
20260508091058 61 293 0.0 8.0 0.33 0.63 0.58 99 1003.9
20260508090053 61 0 0.0 2.0 0.25 0.54 0.50 99 1004.2
20260508085109 61 315 0.0 5.0 0.18 0.47 0.43 99 1004.1
20260508084046 61 301 0.0 11.0 0.13 0.39 0.34 99 1004.3
20260508083044 61 345 1.0 11.0 0.09 0.31 0.26 99 1004.2
20260508082039 61 319 5.0 17.0 0.12 0.30 0.25 99 1004.3
20260508081035 61 351 5.0 18.0 0.12 0.30 0.25 99 1004.4
20260508080053 61 359 10.0 21.0 0.12 0.30 0.25 98 1004.1
20260508075028 61 335 19.0 34.0 0.12 0.30 0.25 97 1003.8
20260508074025 61 353 30.0 43.0 0.11 0.26 0.21 96 1003.4
20260508073022 61 345 34.0 53.0 0.08 0.21 0.17 95 1003.6
20260508072039 61 338 28.0 43.0 0.05 0.18 0.13 95 1003.8
20260508071136 61 2 34.0 58.0 0.05 0.18 0.13 95 1003.6
20260508070111 61 346 40.0 56.0 0.05 0.18 0.13 97 1003.8
20260508065130 61 2 33.0 49.0 0.05 0.18 0.13 97 1004.1
20260508064103 62 349 35.0 49.0 0.02 0.15 0.11 96 1004.9
20260508063100 62 348 33.0 53.0 0.00 0.13 0.08 96 1004.8
20260508062056 62 350 31.0 52.0 0.02 0.13 0.08 96 1004.3
20260508061116 62 346 37.0 59.0 0.02 0.13 0.08 96 1004.5
20260508060049 61 357 33.0 53.0 0.02 0.13 0.08 97 1004.5
20260508055046 61 352 33.0 45.0 0.04 0.13 0.08 97 1004.7
20260508054042 61 356 34.0 51.0 0.04 0.13 0.08 96 1004.8
20260508053039 61 356 34.0 55.0 0.05 0.13 0.08 96 1004.7
20260508052118 61 14 36.0 57.0 0.04 0.11 0.06 96 1004.8
20260508051032 61 0 35.0 46.0 0.04 0.11 0.06 96 1004.9
20260508050029 61 337 33.0 50.0 0.04 0.11 0.06 96 1004.9
20260508045025 61 2 31.0 46.0 0.04 0.09 0.05 96 1005.0
20260508044022 61 352 31.0 44.0 0.04 0.09 0.05 95 1005.0
20260508043018 61 356 30.0 49.0 0.02 0.08 0.04 94 1005.4
20260508042115 61 356 30.0 41.0 0.01 0.07 0.02 93 1005.8
20260508041113 61 13 30.0 43.0 0.01 0.07 0.02 92 1005.8
20260508040109 61 3 34.0 46.0 0.01 0.07 0.02 91 1005.8
20260508035104 61 339 33.0 49.0 0.00 0.06 0.01 90 1005.8
20260508034102 61 348 34.0 50.0 0.00 0.06 0.01 90 1006.0
20260508033057 61 351 33.0 46.0 0.00 0.06 0.01 88 1006.1
20260508032054 61 349 31.0 43.0 0.00 0.06 0.01 86 1006.3
20260508031050 62 353 30.0 49.0 0.00 0.06 0.01 85 1006.4
20260508030047 62 0 30.0 41.0 0.00 0.06 0.01 85 1006.4
20260508025044 62 347 29.0 43.0 0.00 0.06 0.01 86 1006.6
20260508024042 62 347 28.0 47.0 0.00 0.06 0.01 87 1006.8
20260508023036 62 0 27.0 41.0 0.00 0.06 0.01 87 1007.1
20260508022035 61 4 31.0 42.0 0.00 0.06 0.01 89 1007.4
20260508021029 61 350 30.0 46.0 0.00 0.06 0.01 90 1007.6
20260508020026 61 0 29.0 40.0 0.00 0.06 0.01 90 1007.5
20260508015022 61 350 29.0 43.0 0.00 0.06 0.01 88 1007.8
20260508014018 61 5 29.0 42.0 0.00 0.06 0.01 86 1008.1
20260508013115 61 348 30.0 44.0 0.00 0.06 0.01 85 1008.4
20260508012112 61 360 28.0 40.0 0.00 0.06 0.01 84 1008.8
20260508011110 62 351 29.0 43.0 0.00 0.06 0.01 83 1009.3
20260508010106 62 351 28.0 36.0 0.00 0.06 0.01 84 1009.6
20260508005103 62 352 28.0 40.0 0.00 0.06 0.01 84 1009.8
20260508004059 62 350 30.0 43.0 0.00 0.06 0.01 84 1010.0
20260508003137 62 12 26.0 39.0 0.00 0.06 0.01 83 1010.2
20260508002050 62 344 26.0 38.0 0.00 0.06 0.01 84 1010.4
20260508001047 62 1 26.0 38.0 0.00 0.06 0.01 84 1010.7
20260508000043 62 350 25.0 40.0 0.00 0.06 0.01 86 1011.2
20260507235041 62 359 30.0 41.0 0.00 0.06 0.01 86 1011.3
20260507234039 62 2 27.0 39.0 0.00 0.06 0.01 87 1011.3
20260507233033 62 7 27.0 42.0 0.00 0.06 0.01 88 1011.6
20260507232029 62 358 27.0 39.0 0.00 0.06 0.01 89 1011.5
20260507231026 62 6 25.0 37.0 0.00 0.06 0.01 89 1011.7
20260507230024 62 346 23.0 37.0 0.00 0.06 0.01 88 1012.3
20260507225018 62 344 25.0 37.0 0.00 0.06 0.01 89 1012.6
20260507224016 62 9 24.0 34.0 0.00 0.06 0.01 89 1012.8
20260507223113 62 11 25.0 40.0 0.00 0.06 0.01 90 1012.9
20260507222131 62 355 22.0 33.0 0.00 0.06 0.01 90 1013.2
20260507221105 62 347 24.0 32.0 0.00 0.06 0.01 89 1013.4
20260507220104 62 348 28.0 38.0 0.00 0.06 0.01 90 1013.5
20260507215058 62 351 27.0 38.0 0.00 0.06 0.01 91 1013.6
20260507214055 62 20 27.0 42.0 0.00 0.06 0.01 91 1013.8
20260507213051 62 5 28.0 38.0 0.00 0.06 0.01 91 1013.8
20260507212048 62 334 23.0 33.0 0.00 0.06 0.01 90 1014.1
20260507211044 62 351 23.0 31.0 0.00 0.06 0.01 90 1014.2
20260507210042 62 5 26.0 41.0 0.00 0.06 0.01 91 1014.2
20260507205038 62 357 21.0 34.0 0.00 0.06 0.01 92 1014.4
20260507204034 62 4 20.0 31.0 0.00 0.06 0.01 91 1014.3
20260507203052 62 356 20.0 32.0 0.00 0.06 0.01 91 1014.3
20260507202027 62 355 23.0 33.0 0.00 0.06 0.01 91 1014.4
20260507201024 62 352 23.0 43.0 0.00 0.06 0.01 91 1014.4
20260507200103 62 351 25.0 39.0 0.00 0.06 0.01 91 1014.3
20260507195016 62 3 22.0 30.0 0.00 0.06 0.01 91 1014.3
20260507194113 62 352 23.0 34.0 0.00 0.06 0.01 91 1014.5
20260507193130 62 351 20.0 37.0 0.00 0.06 0.01 91 1014.5
20260507192106 62 12 25.0 33.0 0.00 0.06 0.01 91 1014.5
20260507191103 62 15 21.0 36.0 0.00 0.06 0.01 90 1014.6
20260507190059 63 342 24.0 34.0 0.00 0.06 0.01 90 1014.6
20260507185056 63 0 24.0 36.0 0.00 0.06 0.01 91 1014.7
20260507184117 62 0 25.0 34.0 0.00 0.06 0.01 91 1014.8
20260507183048 62 4 24.0 36.0 0.00 0.06 0.01 91 1014.9
20260507182045 62 353 22.0 37.0 0.00 0.06 0.01 91 1015.0
20260507181042 63 356 21.0 31.0 0.00 0.06 0.01 91 1015.0
20260507180039 62 323 22.0 38.0 0.00 0.06 0.01 91 1015.1
20260507175034 63 352 24.0 37.0 0.00 0.06 0.01 91 1015.0
20260507174031 63 17 25.0 35.0 0.00 0.06 0.01 92 1015.0
20260507173027 62 17 24.0 34.0 0.00 0.06 0.01 92 1015.1
20260507172045 62 354 24.0 40.0 0.00 0.06 0.01 93 1015.2
20260507171021 62 349 22.0 32.0 0.00 0.06 0.01 93 1015.3
20260507170019 62 8 24.0 35.0 0.00 0.06 0.01 94 1015.4
20260507165116 62 347 20.0 32.0 0.00 0.06 0.01 94 1015.4
20260507164110 62 357 23.0 32.0 0.00 0.06 0.01 94 1015.6
20260507163107 62 0 22.0 35.0 0.00 0.06 0.01 95 1015.6
20260507162105 62 21 23.0 33.0 0.00 0.06 0.01 95 1015.6
20260507161059 62 0 21.0 27.0 0.00 0.06 0.01 96 1015.7
20260507160057 62 0 20.0 25.0 0.00 0.06 0.01 96 1015.6
20260507155052 62 348 20.0 28.0 0.00 0.06 0.01 96 1015.9
20260507154109 62 351 21.0 30.0 0.00 0.06 0.01 96 1016.0
20260507153045 62 16 21.0 32.0 0.00 0.06 0.01 96 1016.1
20260507152042 62 356 23.0 30.0 0.00 0.06 0.01 96 1016.3
20260507151040 62 348 22.0 36.0 0.00 0.06 0.01 96 1016.4
20260507150035 62 2 22.0 35.0 0.00 0.06 0.01 96 1016.5
20260507145054 62 358 19.0 27.0 0.00 0.06 0.01 96 1016.7
20260507144028 62 331 23.0 35.0 0.00 0.06 0.01 96 1016.7
20260507143045 62 329 22.0 30.0 0.00 0.06 0.01 97 1016.8
20260507142020 62 315 21.0 26.0 0.00 0.06 0.01 97 1017.0
20260507141038 62 315 21.0 26.0 0.00 0.06 0.01 97 1017.2
20260507140115 62 315 27.0 33.0 0.00 0.06 0.01 98 1017.3
20260507135110 62 341 25.0 33.0 0.00 0.06 0.01 98 1017.4
20260507134109 62 330 22.0 33.0 0.00 0.06 0.01 99 1017.5
20260507133103 62 348 22.0 40.0 0.00 0.06 0.01 99 1017.7
20260507132059 61 350 22.0 33.0 0.00 0.06 0.01 99 1017.7
20260507131056 61 357 21.0 34.0 0.01 0.06 0.01 99 1018.0
20260507130115 61 342 18.0 27.0 0.01 0.06 0.01 99 1018.1
20260507125049 61 10 18.0 27.0 0.01 0.06 0.01 99 1018.1
20260507124047 61 6 20.0 31.0 0.02 0.06 0.01 99 1018.2
20260507123042 61 352 18.0 27.0 0.02 0.06 0.01 98 1018.2
20260507122041 61 352 22.0 30.0 0.04 0.06 0.01 98 1018.2